UAL600 KOMA-KORD

Flight info

Callsign UAL600
Flight time 1h 8m
Altitude 37000
Route FOD MYRRS FYTTE7
Aircraft B738/M-SDE2E3FGHIRWXY/LB1

Departure

Time 2026-05-06 03:36
Airport Eppley Airfield (KOMA)

Arrival

Time 2026-05-06 04:44
Airport Chicago O'Hare International Airport (KORD)
Time Latitude Longitude Altitude Speed Heading
2026-05-06 03:19 41.30183 -95.89908 988 ft 0 kts 162°
2026-05-06 03:27 41.30193 -95.89912 990 ft 3 kts 159°
2026-05-06 03:27 41.30212 -95.89923 985 ft 3 kts 148°
2026-05-06 03:27 41.30228 -95.89939 991 ft 3 kts 130°
2026-05-06 03:27 41.30237 -95.89959 989 ft 3 kts 91°
2026-05-06 03:28 41.30235 -95.89974 991 ft 1 kts 56°
2026-05-06 03:28 41.30233 -95.89978 991 ft 1 kts 56°
2026-05-06 03:31 41.30240 -95.89965 992 ft 5 kts 56°
2026-05-06 03:31 41.30268 -95.89910 985 ft 9 kts 54°
2026-05-06 03:31 41.30303 -95.89846 986 ft 0 kts 53°
2026-05-06 03:32 41.30310 -95.89831 985 ft 4 kts 61°
2026-05-06 03:32 41.30306 -95.89769 988 ft 10 kts 129°
2026-05-06 03:32 41.30235 -95.89698 987 ft 16 kts 144°
2026-05-06 03:32 41.30130 -95.89598 986 ft 22 kts 144°
2026-05-06 03:33 41.30016 -95.89491 988 ft 19 kts 144°
2026-05-06 03:33 41.29894 -95.89375 988 ft 20 kts 144°
2026-05-06 03:33 41.29789 -95.89275 983 ft 21 kts 144°
2026-05-06 03:33 41.29676 -95.89168 989 ft 18 kts 144°
2026-05-06 03:34 41.29559 -95.89057 989 ft 21 kts 144°
2026-05-06 03:34 41.29427 -95.88931 987 ft 25 kts 144°
2026-05-06 03:34 41.29311 -95.88820 985 ft 16 kts 144°
2026-05-06 03:34 41.29241 -95.88748 985 ft 16 kts 132°
2026-05-06 03:35 41.29252 -95.88652 985 ft 9 kts 56°
2026-05-06 03:35 41.29295 -95.88621 985 ft 5 kts 337°
2026-05-06 03:35 41.29352 -95.88678 984 ft 21 kts 323°
2026-05-06 03:35 41.29668 -95.88976 992 ft 90 kts 324°
2026-05-06 03:36 41.30342 -95.89621 991 ft 146 kts 324°
2026-05-06 03:36 41.31244 -95.90510 1351 ft 164 kts 324°
2026-05-06 03:36 41.32121 -95.91415 2281 ft 156 kts 324°
2026-05-06 03:36 41.32967 -95.92332 3037 ft 161 kts 326°
2026-05-06 03:37 41.34053 -95.93005 3392 ft 187 kts 352°
2026-05-06 03:37 41.35395 -95.92785 3731 ft 208 kts 22°
2026-05-06 03:37 41.36579 -95.91545 4204 ft 225 kts 43°
2026-05-06 03:37 41.37588 -95.89807 4637 ft 252 kts 57°
2026-05-06 03:38 41.38350 -95.87678 5329 ft 262 kts 62°
2026-05-06 03:38 41.39116 -95.85454 6134 ft 266 kts 59°
2026-05-06 03:38 41.40011 -95.83275 6869 ft 271 kts 54°
2026-05-06 03:38 41.41044 -95.81163 7678 ft 273 kts 50°
2026-05-06 03:39 41.42199 -95.79118 8421 ft 278 kts 46°
2026-05-06 03:39 41.43454 -95.77130 9239 ft 281 kts 43°
2026-05-06 03:39 41.44785 -95.75198 10005 ft 285 kts 39°
2026-05-06 03:39 41.46234 -95.73362 10679 ft 290 kts 37°
2026-05-06 03:40 41.47745 -95.71541 11335 ft 296 kts 36°
2026-05-06 03:40 41.49300 -95.69683 11945 ft 306 kts 36°
2026-05-06 03:40 41.50906 -95.67756 12638 ft 313 kts 36°
2026-05-06 03:40 41.52509 -95.65819 13405 ft 317 kts 36°
2026-05-06 03:41 41.54163 -95.63811 14120 ft 324 kts 36°
2026-05-06 03:41 41.55849 -95.61758 14795 ft 331 kts 36°
2026-05-06 03:41 41.57560 -95.59667 15497 ft 336 kts 37°
2026-05-06 03:41 41.59296 -95.57539 16195 ft 342 kts 37°
2026-05-06 03:42 41.61064 -95.55367 16880 ft 348 kts 37°
2026-05-06 03:42 41.62862 -95.53157 17563 ft 354 kts 37°
2026-05-06 03:42 41.64694 -95.50902 18264 ft 360 kts 38°
2026-05-06 03:42 41.66540 -95.48623 18967 ft 362 kts 38°
2026-05-06 03:43 41.68381 -95.46350 19563 ft 368 kts 38°
2026-05-06 03:43 41.70280 -95.44006 20126 ft 374 kts 38°
2026-05-06 03:43 41.72208 -95.41626 20712 ft 380 kts 37°
2026-05-06 03:43 41.74164 -95.39208 21309 ft 385 kts 37°
2026-05-06 03:44 41.76143 -95.36760 21883 ft 390 kts 37°
2026-05-06 03:44 41.78157 -95.34264 22458 ft 396 kts 37°
2026-05-06 03:44 41.80193 -95.31740 23033 ft 401 kts 37°
2026-05-06 03:44 41.82257 -95.29180 23605 ft 406 kts 37°
2026-05-06 03:45 41.84342 -95.26589 24101 ft 410 kts 37°
2026-05-06 03:45 41.86413 -95.24012 24643 ft 412 kts 37°
2026-05-06 03:45 41.88526 -95.21380 25215 ft 414 kts 37°
2026-05-06 03:45 41.90645 -95.18739 25726 ft 417 kts 37°
2026-05-06 03:46 41.92783 -95.16072 26213 ft 421 kts 37°
2026-05-06 03:46 41.94940 -95.13381 26693 ft 424 kts 37°
2026-05-06 03:46 41.97108 -95.10673 27189 ft 427 kts 37°
2026-05-06 03:46 41.99298 -95.07933 27648 ft 431 kts 37°
2026-05-06 03:47 42.00747 -95.06120 27945 ft 433 kts 37°
2026-05-06 03:47 42.02970 -95.03336 28362 ft 437 kts 38°
2026-05-06 03:47 42.05204 -95.00536 28806 ft 441 kts 38°
2026-05-06 03:47 42.08189 -94.96788 29419 ft 444 kts 38°
2026-05-06 03:48 42.09718 -94.94866 29740 ft 446 kts 37°
2026-05-06 03:48 42.12003 -94.91994 30114 ft 451 kts 37°
2026-05-06 03:48 42.14303 -94.89098 30451 ft 454 kts 37°
2026-05-06 03:48 42.16621 -94.86177 30783 ft 457 kts 37°
2026-05-06 03:49 42.18953 -94.83235 31108 ft 461 kts 37°
2026-05-06 03:49 42.21269 -94.80309 31414 ft 464 kts 37°
2026-05-06 03:49 42.23639 -94.77313 31726 ft 468 kts 37°
2026-05-06 03:49 42.26022 -94.74297 32030 ft 471 kts 37°
2026-05-06 03:50 42.28436 -94.71241 32169 ft 479 kts 37°
2026-05-06 03:50 42.30886 -94.68137 32268 ft 487 kts 37°
2026-05-06 03:50 42.33378 -94.64974 32432 ft 494 kts 37°
2026-05-06 03:50 42.35896 -94.61771 32682 ft 497 kts 37°
2026-05-06 03:51 42.38417 -94.58558 33028 ft 499 kts 37°
2026-05-06 03:51 42.40958 -94.55317 33013 ft 504 kts 37°
2026-05-06 03:51 42.46015 -94.48851 33003 ft 498 kts 37°
2026-05-06 03:52 42.51027 -94.42434 33020 ft 496 kts 37°
2026-05-06 03:52 42.56048 -94.36001 33036 ft 498 kts 37°
2026-05-06 03:53 42.58457 -94.32578 32990 ft 507 kts 49°
2026-05-06 03:53 42.60169 -94.28368 33029 ft 514 kts 68°
2026-05-06 03:53 42.61023 -94.23657 32994 ft 514 kts 87°
2026-05-06 03:53 42.60993 -94.18834 33032 ft 510 kts 96°
2026-05-06 03:54 42.60567 -94.09222 33006 ft 510 kts 96°
2026-05-06 03:54 42.60189 -93.99699 33005 ft 509 kts 96°
2026-05-06 03:55 42.59865 -93.90164 32988 ft 508 kts 95°
2026-05-06 03:55 42.59555 -93.80576 32988 ft 507 kts 95°
2026-05-06 03:56 42.59237 -93.71012 32978 ft 506 kts 95°
2026-05-06 03:56 42.58908 -93.61468 32984 ft 506 kts 96°
2026-05-06 03:57 42.58568 -93.51914 32992 ft 507 kts 96°
2026-05-06 03:57 42.58223 -93.42406 33001 ft 507 kts 96°
2026-05-06 03:58 42.57867 -93.32847 32993 ft 508 kts 96°
2026-05-06 03:58 42.57504 -93.23282 33006 ft 508 kts 96°
2026-05-06 03:59 42.57132 -93.13692 32971 ft 508 kts 96°
2026-05-06 03:59 42.56753 -93.04132 32971 ft 507 kts 96°
2026-05-06 04:00 42.56369 -92.94664 32976 ft 507 kts 96°
2026-05-06 04:00 42.55974 -92.85102 32980 ft 507 kts 97°
2026-05-06 04:01 42.55573 -92.75598 32977 ft 507 kts 97°
2026-05-06 04:01 42.55162 -92.66033 32962 ft 508 kts 97°
2026-05-06 04:02 42.54744 -92.56478 32974 ft 507 kts 97°
2026-05-06 04:02 42.54316 -92.46915 32971 ft 507 kts 97°
2026-05-06 04:03 42.53885 -92.37428 32974 ft 507 kts 97°
2026-05-06 04:03 42.53442 -92.27876 32945 ft 507 kts 97°
2026-05-06 04:04 42.52992 -92.18328 32981 ft 507 kts 97°
2026-05-06 04:04 42.52535 -92.08771 32989 ft 508 kts 97°
2026-05-06 04:05 42.52297 -91.99296 32991 ft 510 kts 92°
2026-05-06 04:05 42.52432 -91.89666 32988 ft 511 kts 91°
2026-05-06 04:06 42.52562 -91.80073 32967 ft 512 kts 92°
2026-05-06 04:06 42.52623 -91.70417 32969 ft 512 kts 92°
2026-05-06 04:07 42.52656 -91.60745 32964 ft 513 kts 93°
2026-05-06 04:07 42.52686 -91.51081 32940 ft 513 kts 93°
2026-05-06 04:08 42.52710 -91.41404 32961 ft 513 kts 93°
2026-05-06 04:08 42.52720 -91.31785 32963 ft 514 kts 93°
2026-05-06 04:09 42.52721 -91.22087 32961 ft 514 kts 93°
2026-05-06 04:09 42.52716 -91.12381 32929 ft 515 kts 94°
2026-05-06 04:10 42.52702 -91.02668 32954 ft 515 kts 94°
2026-05-06 04:10 42.52680 -90.93110 32403 ft 517 kts 94°
2026-05-06 04:11 42.52669 -90.88267 32045 ft 511 kts 94°
2026-05-06 04:11 42.52654 -90.83447 31624 ft 508 kts 94°
2026-05-06 04:11 42.52635 -90.78682 31309 ft 502 kts 94°
2026-05-06 04:11 42.52612 -90.73980 30964 ft 496 kts 95°
2026-05-06 04:12 42.52585 -90.69315 30576 ft 493 kts 95°
2026-05-06 04:12 42.52555 -90.64676 30200 ft 489 kts 95°
2026-05-06 04:12 42.52524 -90.60082 29772 ft 486 kts 95°
2026-05-06 04:12 42.52491 -90.55514 29320 ft 482 kts 95°
2026-05-06 04:13 42.52459 -90.51041 28919 ft 477 kts 95°
2026-05-06 04:13 42.52425 -90.46556 28496 ft 473 kts 95°
2026-05-06 04:13 42.52389 -90.42108 28094 ft 469 kts 95°
2026-05-06 04:13 42.52352 -90.37704 27659 ft 466 kts 95°
2026-05-06 04:14 42.52314 -90.33323 27301 ft 462 kts 95°
2026-05-06 04:14 42.52277 -90.28994 27001 ft 455 kts 95°
2026-05-06 04:14 42.52249 -90.24727 26713 ft 450 kts 95°
2026-05-06 04:14 42.52222 -90.20500 26328 ft 447 kts 95°
2026-05-06 04:15 42.52194 -90.16295 25943 ft 445 kts 95°
2026-05-06 04:15 42.52163 -90.12116 25556 ft 443 kts 95°
2026-05-06 04:15 42.52131 -90.07945 25167 ft 441 kts 95°
2026-05-06 04:15 42.52097 -90.03849 24781 ft 439 kts 95°
2026-05-06 04:16 42.52062 -89.99794 24381 ft 438 kts 94°
2026-05-06 04:16 42.52024 -89.95687 23977 ft 437 kts 94°
2026-05-06 04:16 42.51986 -89.91574 23583 ft 436 kts 94°
2026-05-06 04:16 42.51947 -89.87469 23134 ft 435 kts 94°
2026-05-06 04:17 42.51907 -89.83381 22717 ft 432 kts 94°
2026-05-06 04:17 42.51865 -89.79312 22311 ft 429 kts 94°
2026-05-06 04:17 42.51713 -89.75299 21949 ft 423 kts 101°
2026-05-06 04:17 42.51286 -89.71381 21609 ft 417 kts 104°
2026-05-06 04:18 42.50766 -89.67583 21232 ft 414 kts 105°
2026-05-06 04:18 42.50230 -89.63762 20900 ft 410 kts 105°
2026-05-06 04:18 42.49719 -89.59974 20544 ft 408 kts 104°
2026-05-06 04:18 42.49232 -89.56196 20175 ft 406 kts 103°
2026-05-06 04:19 42.48763 -89.52440 19799 ft 404 kts 103°
2026-05-06 04:19 42.48302 -89.48695 19424 ft 402 kts 103°
2026-05-06 04:19 42.47843 -89.44962 19037 ft 401 kts 103°
2026-05-06 04:19 42.47382 -89.41237 18657 ft 399 kts 103°
2026-05-06 04:20 42.46925 -89.37537 18299 ft 397 kts 102°
2026-05-06 04:20 42.46474 -89.33862 17918 ft 395 kts 102°
2026-05-06 04:20 42.46024 -89.30196 17511 ft 393 kts 102°
2026-05-06 04:20 42.45577 -89.26559 17118 ft 390 kts 102°
2026-05-06 04:21 42.45131 -89.22943 16731 ft 388 kts 102°
2026-05-06 04:21 42.44688 -89.19357 16357 ft 385 kts 102°
2026-05-06 04:21 42.44249 -89.15830 15992 ft 383 kts 102°
2026-05-06 04:21 42.43807 -89.12281 15620 ft 381 kts 102°
2026-05-06 04:22 42.43360 -89.08756 15242 ft 379 kts 103°
2026-05-06 04:22 42.42910 -89.05249 14885 ft 377 kts 102°
2026-05-06 04:22 42.42469 -89.01768 14525 ft 375 kts 102°
2026-05-06 04:23 42.41610 -88.94913 13781 ft 373 kts 102°
2026-05-06 04:23 42.41174 -88.91457 13365 ft 372 kts 102°
2026-05-06 04:23 42.40739 -88.88023 12979 ft 369 kts 102°
2026-05-06 04:23 42.40065 -88.84721 12699 ft 358 kts 118°
2026-05-06 04:24 42.38783 -88.81915 12420 ft 345 kts 134°
2026-05-06 04:24 42.37272 -88.79431 12177 ft 339 kts 134°
2026-05-06 04:24 42.35779 -88.76987 11904 ft 335 kts 134°
2026-05-06 04:24 42.34310 -88.74572 11647 ft 331 kts 134°
2026-05-06 04:25 42.32854 -88.72171 11398 ft 328 kts 133°
2026-05-06 04:25 42.31417 -88.69791 11148 ft 326 kts 133°
2026-05-06 04:25 42.29990 -88.67420 10889 ft 324 kts 133°
2026-05-06 04:25 42.28590 -88.65093 10622 ft 322 kts 132°
2026-05-06 04:26 42.27187 -88.62757 10331 ft 319 kts 132°
2026-05-06 04:26 42.25794 -88.60439 10033 ft 317 kts 131°
2026-05-06 04:26 42.24410 -88.58137 9743 ft 314 kts 131°
2026-05-06 04:26 42.23035 -88.55850 9409 ft 312 kts 131°
2026-05-06 04:27 42.21671 -88.53583 9086 ft 310 kts 131°
2026-05-06 04:27 42.20314 -88.51328 8767 ft 308 kts 131°
2026-05-06 04:27 42.18967 -88.49092 8449 ft 306 kts 130°
2026-05-06 04:27 42.17631 -88.46874 8129 ft 304 kts 131°
2026-05-06 04:28 42.16299 -88.44668 7812 ft 302 kts 130°
2026-05-06 04:28 42.14979 -88.42482 7574 ft 297 kts 130°
2026-05-06 04:28 42.13708 -88.40377 7520 ft 291 kts 130°
2026-05-06 04:28 42.12431 -88.38264 7440 ft 290 kts 130°
2026-05-06 04:29 42.11161 -88.36165 7357 ft 288 kts 130°
2026-05-06 04:29 42.09902 -88.34085 7280 ft 286 kts 130°
2026-05-06 04:29 42.08651 -88.32020 7202 ft 284 kts 130°
2026-05-06 04:29 42.07403 -88.29963 7135 ft 284 kts 129°
2026-05-06 04:30 42.06145 -88.27888 7063 ft 288 kts 129°
2026-05-06 04:30 42.04872 -88.25792 6989 ft 289 kts 129°
2026-05-06 04:30 42.03603 -88.23702 6901 ft 288 kts 129°
2026-05-06 04:30 42.02336 -88.21617 6776 ft 288 kts 129°
2026-05-06 04:31 42.01065 -88.19529 6654 ft 288 kts 129°
2026-05-06 04:31 41.99797 -88.17445 6530 ft 288 kts 129°
2026-05-06 04:31 41.98526 -88.15358 6407 ft 288 kts 129°
2026-05-06 04:31 41.97274 -88.13304 6282 ft 288 kts 129°
2026-05-06 04:32 41.96012 -88.11233 6119 ft 285 kts 128°
2026-05-06 04:32 41.94764 -88.09188 5985 ft 281 kts 128°
2026-05-06 04:32 41.93535 -88.07174 5854 ft 278 kts 128°
2026-05-06 04:32 41.92311 -88.05170 5722 ft 277 kts 128°
2026-05-06 04:33 41.91086 -88.03167 5594 ft 277 kts 128°
2026-05-06 04:33 41.89864 -88.01171 5461 ft 277 kts 128°
2026-05-06 04:33 41.89096 -87.99874 5376 ft 276 kts 122°
2026-05-06 04:33 41.88446 -87.97505 5231 ft 271 kts 94°
2026-05-06 04:34 41.88388 -87.94998 5126 ft 269 kts 87°
2026-05-06 04:34 41.88406 -87.92514 4984 ft 262 kts 86°
2026-05-06 04:34 41.88424 -87.90089 4866 ft 256 kts 87°
2026-05-06 04:34 41.88435 -87.86964 4734 ft 251 kts 87°
2026-05-06 04:35 41.88436 -87.85375 4660 ft 254 kts 87°
2026-05-06 04:35 41.88435 -87.82991 4540 ft 252 kts 87°
2026-05-06 04:35 41.88432 -87.80703 4403 ft 246 kts 87°
2026-05-06 04:35 41.88429 -87.78384 4268 ft 246 kts 87°
2026-05-06 04:36 41.88428 -87.76110 4141 ft 247 kts 87°
2026-05-06 04:36 41.88425 -87.73821 4034 ft 242 kts 87°
2026-05-06 04:36 41.88421 -87.71606 4000 ft 233 kts 86°
2026-05-06 04:36 41.88418 -87.69436 4006 ft 234 kts 87°
2026-05-06 04:37 41.88416 -87.67239 4020 ft 237 kts 87°
2026-05-06 04:37 41.88412 -87.65024 4003 ft 234 kts 87°
2026-05-06 04:37 41.88407 -87.62879 3992 ft 227 kts 87°
2026-05-06 04:37 41.88457 -87.60784 3994 ft 223 kts 75°
2026-05-06 04:38 41.89240 -87.59089 3964 ft 214 kts 32°
2026-05-06 04:38 41.90618 -87.58471 3935 ft 210 kts
2026-05-06 04:38 41.92049 -87.58747 3891 ft 209 kts 338°
2026-05-06 04:38 41.93278 -87.59748 3877 ft 207 kts 324°
2026-05-06 04:39 41.94440 -87.60906 3836 ft 209 kts 324°
2026-05-06 04:39 41.95609 -87.62068 3805 ft 210 kts 324°
2026-05-06 04:39 41.96786 -87.63236 3751 ft 209 kts 324°
2026-05-06 04:39 41.97921 -87.64392 3686 ft 206 kts 319°
2026-05-06 04:40 41.98637 -87.65990 3645 ft 196 kts 289°
2026-05-06 04:40 41.98823 -87.67751 3633 ft 184 kts 275°
2026-05-06 04:40 41.98844 -87.69418 3539 ft 174 kts 275°
2026-05-06 04:40 41.98852 -87.71019 3351 ft 167 kts 275°
2026-05-06 04:41 41.98851 -87.72560 3106 ft 162 kts 275°
2026-05-06 04:41 41.98848 -87.74051 2893 ft 157 kts 275°
2026-05-06 04:41 41.98845 -87.75500 2670 ft 153 kts 275°
2026-05-06 04:41 41.98843 -87.76924 2482 ft 150 kts 276°
2026-05-06 04:42 41.98840 -87.78280 2266 ft 141 kts 276°
2026-05-06 04:42 41.98839 -87.79570 2079 ft 139 kts 277°
2026-05-06 04:42 41.98837 -87.80856 1884 ft 137 kts 276°
2026-05-06 04:42 41.98837 -87.82131 1705 ft 136 kts 277°
2026-05-06 04:43 41.98837 -87.83417 1521 ft 139 kts 275°
2026-05-06 04:43 41.98835 -87.84721 1313 ft 139 kts 273°
2026-05-06 04:43 41.98831 -87.86010 1141 ft 136 kts 273°
2026-05-06 04:43 41.98831 -87.87284 957 ft 136 kts 274°
2026-05-06 04:44 41.98831 -87.88556 791 ft 137 kts 273°
2026-05-06 04:44 41.98828 -87.89843 672 ft 135 kts 274°
2026-05-06 04:44 41.98832 -87.90761 669 ft 67 kts 270°
2026-05-06 04:44 41.98829 -87.91325 666 ft 45 kts 265°
2026-05-06 04:45 41.98754 -87.91563 667 ft 21 kts 242°
2026-05-06 04:45 41.98689 -87.91729 669 ft 19 kts 246°
2026-05-06 04:45 41.98595 -87.91822 669 ft 18 kts 180°
2026-05-06 04:45 41.98470 -87.91821 668 ft 18 kts 180°
2026-05-06 04:46 41.98347 -87.91823 669 ft 15 kts 181°
2026-05-06 04:46 41.98288 -87.91747 669 ft 13 kts 91°
2026-05-06 04:46 41.98288 -87.91626 669 ft 13 kts 90°
2026-05-06 04:46 41.98288 -87.91503 669 ft 13 kts 90°
2026-05-06 04:47 41.98289 -87.91370 670 ft 16 kts 90°
2026-05-06 04:47 41.98289 -87.91203 668 ft 20 kts 90°
2026-05-06 04:47 41.98289 -87.91022 668 ft 19 kts 90°
2026-05-06 04:47 41.98289 -87.90983 668 ft 3 kts 90°
2026-05-06 04:48 41.98289 -87.90930 668 ft 7 kts 90°
2026-05-06 04:48 41.98252 -87.90868 669 ft 13 kts 174°
2026-05-06 04:48 41.98164 -87.90857 669 ft 11 kts 175°
2026-05-06 04:48 41.98100 -87.90850 669 ft 10 kts 175°
2026-05-06 04:49 41.98076 -87.90847 669 ft 0 kts 174°
2026-05-06 04:49 41.98050 -87.90852 669 ft 11 kts 190°
2026-05-06 04:49 41.97947 -87.90877 670 ft 15 kts 190°
2026-05-06 04:49 41.97838 -87.90903 668 ft 17 kts 189°
2026-05-06 04:50 41.97725 -87.90929 670 ft 15 kts 189°
2026-05-06 04:50 41.97629 -87.90950 670 ft 10 kts 188°
2026-05-06 04:50 41.97548 -87.90938 670 ft 12 kts 158°
2026-05-06 04:50 41.97505 -87.90915 670 ft 3 kts 157°
2026-05-06 04:51 41.97500 -87.90912 670 ft 0 kts 158°